This is the latest recevied weather packets stored in our database for station/object NK7E-2. If no packets are shown the sender has not sent any weather packets the latest 10 day(s).
| Time | Temp. | Humidity | Pressure | Rain* | Wind** | Luminosity | Snow |
|---|---|---|---|---|---|---|---|
| 1777482916 | 22.78° C | 16% | 1024.4 hPa | 0 mm | - | - | - |
| 1777482316 | 23.33° C | 15% | 1024.1 hPa | 0 mm | - | - | - |
| 1777481716 | 23.33° C | 16% | 1024.3 hPa | 0 mm | - | - | - |
| 1777481116 | 22.22° C | 16% | 1024.3 hPa | 0 mm | - | - | - |
| 1777480516 | 22.22° C | 17% | 1024.3 hPa | 0 mm | - | - | - |
| 1777479916 | 21.67° C | 17% | 1024.1 hPa | 0 mm | - | - | - |
| 1777479316 | 21.11° C | 17% | 1024.5 hPa | 0 mm | - | - | - |
| 1777478716 | 21.11° C | 18% | 1024.6 hPa | 0 mm | - | - | - |
| 1777478116 | 20° C | 19% | 1024.1 hPa | 0 mm | - | - | - |
| 1777477516 | 19.44° C | 19% | 1023.9 hPa | 0 mm | - | - | - |
| 1777476916 | 18.89° C | 19% | 1024 hPa | 0 mm | - | - | - |
| 1777476316 | 18.89° C | 20% | 1024.1 hPa | 0 mm | - | - | - |
| 1777475716 | 18.89° C | 20% | 1023.9 hPa | 0 mm | - | - | - |
| 1777475116 | 18.33° C | 20% | 1023.7 hPa | 0 mm | - | - | - |
| 1777474516 | 17.78° C | 20% | 1023.9 hPa | 0 mm | - | - | - |
| 1777473916 | 17.78° C | 21% | 1023.7 hPa | 0 mm | - | - | - |
| 1777473316 | 17.22° C | 21% | 1023.5 hPa | 0 mm | - | - | - |
| 1777472716 | 17.22° C | 21% | 1023.7 hPa | 0 mm | - | - | - |
| 1777472116 | 16.67° C | 21% | 1023.7 hPa | 0 mm | - | - | - |
| 1777471516 | 16.11° C | 22% | 1023.2 hPa | 0 mm | - | - | - |
| 1777470916 | 16.11° C | 22% | 1023.3 hPa | 0 mm | - | - | - |
| 1777470316 | 16.11° C | 21% | 1023.3 hPa | 0 mm | - | - | - |
| 1777469716 | 16.11° C | 22% | 1023.2 hPa | 0 mm | - | - | - |
| 1777469116 | 15.56° C | 21% | 1023 hPa | 0 mm | - | - | - |
| 1777468516 | 16.11° C | 21% | 1023.3 hPa | 0 mm | - | - | - |
* Rain latest hour (hover to see other rain measurements)
** Current wind speed in m/s (hover to see current wind gust speed)